OBJECT XH, 65729

Orbit data source: Space-Track

You're viewing an Uncataloged Satellite

Recently launched and/or uncataloged satellites may have evolving metadata. Metadata may include but not limited to: Owner, Maufacturer, Bus, Motor, and Mission.

OBJECT XH, 65729 is a satellite owned by Kyutech (JP) in LEO that was delivered to and deployed from the ISS. Unknown objects in Earth's orbit typically refer to objects detected orbiting the Earth but have not yet been identified or cataloged. These objects could be anything from previously untracked satellites, spent rocket stages, debris from satellite collisions, or even natural meteoroids temporarily captured by Earth's gravity.

Loading next visibility...
Identifier
65729, 1998-067XH
Orbit
LEO
Country
Flag of JPJP / JPN
Related business
Manufacturer
Kyutech
Mission
Operational spacecraft
Bus & Motor
CUBESAT 2U, Unknown motor
Mass
2 kg wet, 2 kg dry
Launch date (UTC)
1998-11-20 (27 years ago)
Launch vehicle
FALCON 9
Launch site
Tyuratam Missile And Space Complex (TTMTR)
Object type
Unknown
Shape & HBR
Unknown shape, 1.1 m
Radar Cross Section
RCS unknown

Expand to show TLE details & history
Last TLE update: 14 hours ago

TLE from 14 hours ago
0 OBJECT XH
1 65729U 98067XH  25340.75777803  .00197078  00000-0  16006-2 0  9994
2 65729  51.6244 166.3400 0006464 240.1975 119.8380 15.69539731 12227
Epoch: 2025-12-06T18:11Z
TLE epoch observation values (Epoch: 2025-12-06T18:11:12.021Z)
Latitude
-0.00001°
Longitude
177.75898°
Altitude
363.129 km
Speed
7.692 km/s
True Right ascension
11h 05m 21s
True Declination
0° 00' 00"
Sunlit
Object was in daylight at epoch
Visualization orbit readout
Latitude
Unknown
Longitude
Unknown
Altitude
Unknown
Speed
Unknown
Apparent Right ascension
Unknown
Apparent Declination
Unknown
Sunlit
N/A
Visualization observer readout
Local Sidereal Time
06:37:26
Azimuth
Unknown
Elevation
Unknown
Doppler factor
Unknown
Orbital elements
Apogee altitude
365.085 km
Perigee altitude
356.373 km
Semi-major axis
6,738.866 km
Eccentricity
0.00065
Inclination
51.6244°
RAAN
166.34°
Arg. of periapsis
240.1975°
True anomaly
119.90223°
Mean anomaly
119.838°
Eccentric anomaly
119.87012°
Mean motion
3.9234 °/min
Orbital period
91.76 mins
BSTAR
0.0016006
Loading maneuver chart data...
Computing Atmospheric mass density...

Documentation

Showing up to 5 results
|